Tracking 28531 objects as of 26-Feb-2024
HD Live streaming from Space Station
objects crossing your sky now

NOAA 16 DEB

Track NOAA 16 DEB now!
10-day predictions


NORAD ID: 42428
Int'l Code: 2000-055TY
Perigee: 805.1 km
Apogee: 845.0 km
Inclination: 98.9 °
Period: 101.3 minutes
Semi major axis: 7196 km
RCS: Unknown
Launch date: September 21, 2000
Source: United States (US)
Launch site: AIR FORCE WESTERN TEST RANGE (AFWTR)

Note: This is SATELLITE DEBRIS
Your satellite tracking list
Your tracking list is empty




NASA's NSSDC Master Catalog

Two Line Element Set (TLE):
1 42428U 00055TY  24057.15208874  .00003236  00000-0  14731-2 0  9995
2 42428  98.8899 174.1705 0027777 144.1861 216.1186 14.22205641370791
Source of the keplerian elements: AFSPC